TimeICT,TemperatureF,Dew PointF,Humidity,Sea Level PressureIn,VisibilityMPH,Wind Direction,Wind SpeedMPH,Gust SpeedMPH,PrecipitationIn,Events,Conditions,WindDirDegrees,DateUTC
7:00 AM,78,76,93,29.79,6,NE,4.5,,,,Scattered Clouds,50,2012-10-27 00:00:00
7:00 AM,80.6,71.6,74,29.80,5.6,WNW,4.6,-,N/A,,Scattered Clouds,300,2012-10-27 00:00:00
7:30 AM,82.4,73.4,74,29.80,6.2,WSW,4.6,-,N/A,,Scattered Clouds,240,2012-10-27 00:30:00
8:00 AM,82.4,73.4,74,29.80,6.2,West,4.6,-,N/A,,Scattered Clouds,280,2012-10-27 01:00:00
8:30 AM,84.2,71.6,66,29.83,6.2,West,4.6,-,N/A,,Scattered Clouds,280,2012-10-27 01:30:00
9:00 AM,84.2,71.6,66,29.83,6.2,WSW,4.6,-,N/A,,Scattered Clouds,250,2012-10-27 02:00:00
9:30 AM,86.0,71.6,62,29.83,-9999.0,Variable,3.5,-,N/A,,Clear,0,2012-10-27 02:30:00
10:00 AM,87.8,71.6,58,29.83,6.2,NNW,8.1,-,N/A,,Partly Cloudy,330,2012-10-27 03:00:00
10:30 AM,89.6,73.4,59,29.80,6.2,NNW,8.1,-,N/A,,Partly Cloudy,330,2012-10-27 03:30:00
11:00 AM,89.6,71.6,55,29.80,6.2,NNW,5.8,-,N/A,,Partly Cloudy,330,2012-10-27 04:00:00
11:30 AM,87.8,71.6,58,29.77,6.2,North,5.8,-,N/A,,Scattered Clouds,360,2012-10-27 04:30:00
12:00 PM,87.8,71.6,58,29.77,6.2,NNE,9.2,-,N/A,,Scattered Clouds,30,2012-10-27 05:00:00
12:30 PM,89.6,71.6,55,29.74,6.2,WNW,5.8,-,N/A,,Scattered Clouds,300,2012-10-27 05:30:00
1:00 PM,91.4,71.6,52,29.74,6.2,North,9.2,-,N/A,,Scattered Clouds,350,2012-10-27 06:00:00
1:30 PM,91.4,73.4,55,29.71,6.2,North,6.9,-,N/A,,Scattered Clouds,350,2012-10-27 06:30:00
2:00 PM,89.6,69.8,52,29.71,6.2,North,3.5,-,N/A,,Scattered Clouds,360,2012-10-27 07:00:00
3:00 PM,91.4,69.8,49,29.71,6.2,Variable,3.5,-,N/A,,Scattered Clouds,0,2012-10-27 08:00:00
3:30 PM,91.4,71.6,52,29.68,6.2,SW,3.5,-,N/A,,Scattered Clouds,230,2012-10-27 08:30:00
4:00 PM,91.4,71.6,52,29.71,6.2,Variable,3.5,-,N/A,,Scattered Clouds,0,2012-10-27 09:00:00
4:30 PM,89.6,71.6,55,29.71,6.2,SSE,3.5,-,N/A,,Scattered Clouds,160,2012-10-27 09:30:00
5:00 PM,89.6,71.6,55,29.71,6.2,SSE,4.6,-,N/A,,Scattered Clouds,160,2012-10-27 10:00:00
5:30 PM,87.8,71.6,58,29.71,6.2,SE,4.6,-,N/A,,Scattered Clouds,140,2012-10-27 10:30:00
6:00 PM,87.8,71.6,58,29.74,5.6,SE,4.6,-,N/A,,Scattered Clouds,130,2012-10-27 11:00:00
6:30 PM,87.8,71.6,58,29.74,5.6,Variable,3.5,-,N/A,,Scattered Clouds,0,2012-10-27 11:30:00
7:00 PM,86.0,71.6,62,29.74,5.6,Variable,3.5,-,N/A,,Scattered Clouds,0,2012-10-27 12:00:00
7:30 PM,86.0,71.6,62,29.77,5.6,SSE,3.5,-,N/A,,Scattered Clouds,150,2012-10-27 12:30:00
8:30 PM,86.0,71.6,62,29.80,5.6,ESE,2.3,-,N/A,,Scattered Clouds,120,2012-10-27 13:30:00
9:00 PM,84.2,71.6,66,29.80,5.6,ESE,2.3,-,N/A,,Scattered Clouds,120,2012-10-27 14:00:00
9:30 PM,84.2,71.6,66,29.80,5.6,SE,2.3,-,N/A,,Scattered Clouds,140,2012-10-27 14:30:00
10:00 PM,84.2,73.4,70,29.80,5.6,South,2.3,-,N/A,,Scattered Clouds,190,2012-10-27 15:00:00
10:30 PM,84.2,75.2,74,29.80,5.6,SW,2.3,-,N/A,,Scattered Clouds,220,2012-10-27 15:30:00